| time (UTC) | temp F | wind direction | speed MPH | gust MPH | rain 1hr in | rain 24hr in | rain mn in | humidity % | barometer mb |
| 20260831094527 | 85 | 57 | 2.0 | 4.0 | 0.00 | 0.00 | 0.00 | 58 | 1013.8 |
| 20260831094028 | 85 | 57 | 2.0 | 4.0 | 0.00 | 0.00 | 0.00 | 58 | 1013.8 |
| 20260831093513 | 84 | 56 | 2.0 | 4.0 | 0.00 | 0.00 | 0.00 | 59 | 1013.8 |
| 20260831093025 | 84 | 57 | 2.0 | 5.0 | 0.00 | 0.00 | 0.00 | 59 | 1013.9 |
| 20260831092550 | 84 | 57 | 3.0 | 5.0 | 0.00 | 0.00 | 0.00 | 59 | 1013.9 |
| 20260831092030 | 83 | 54 | 3.0 | 5.0 | 0.00 | 0.00 | 0.00 | 60 | 1014.0 |
| 20260831091534 | 83 | 54 | 3.0 | 5.0 | 0.00 | 0.00 | 0.00 | 61 | 1014.0 |
| 20260831091018 | 83 | 51 | 3.0 | 5.0 | 0.00 | 0.00 | 0.00 | 61 | 1014.1 |
| 20260831090522 | 82 | 55 | 3.0 | 4.0 | 0.00 | 0.00 | 0.00 | 62 | 1014.1 |
| 20260831090015 | 82 | 57 | 2.0 | 5.0 | 0.00 | 0.00 | 0.00 | 62 | 1014.2 |
| 20260831085540 | 82 | 57 | 2.0 | 5.0 | 0.00 | 0.00 | 0.00 | 61 | 1014.2 |
| 20260831085018 | 81 | 57 | 2.0 | 5.0 | 0.00 | 0.00 | 0.00 | 63 | 1014.1 |
| 20260831084522 | 81 | 57 | 2.0 | 5.0 | 0.00 | 0.00 | 0.00 | 65 | 1014.1 |
| 20260831084023 | 81 | 57 | 3.0 | 6.0 | 0.00 | 0.00 | 0.00 | 64 | 1014.2 |
| 20260831083527 | 80 | 58 | 3.0 | 6.0 | 0.00 | 0.00 | 0.00 | 64 | 1014.2 |
| 20260831083021 | 80 | 55 | 2.0 | 4.0 | 0.00 | 0.00 | 0.00 | 64 | 1014.2 |
| 20260831082524 | 80 | 54 | 2.0 | 6.0 | 0.00 | 0.00 | 0.00 | 65 | 1014.2 |
| 20260831082024 | 80 | 54 | 4.0 | 6.0 | 0.00 | 0.00 | 0.00 | 65 | 1014.2 |
| 20260831081527 | 79 | 53 | 2.0 | 4.0 | 0.00 | 0.00 | 0.00 | 67 | 1014.2 |
| 20260831081027 | 79 | 53 | 3.0 | 4.0 | 0.00 | 0.00 | 0.00 | 67 | 1014.2 |
| 20260831080551 | 78 | 55 | 2.0 | 4.0 | 0.00 | 0.00 | 0.00 | 68 | 1014.2 |
| 20260831080023 | 78 | 54 | 2.0 | 6.0 | 0.00 | 0.00 | 0.00 | 69 | 1014.2 |
| 20260831075546 | 77 | 54 | 3.0 | 6.0 | 0.00 | 0.00 | 0.00 | 69 | 1014.2 |
| 20260831075026 | 77 | 55 | 3.0 | 5.0 | 0.00 | 0.00 | 0.00 | 69 | 1014.3 |
| 20260831074515 | 77 | 58 | 2.0 | 6.0 | 0.00 | 0.00 | 0.00 | 70 | 1014.3 |
| 20260831074015 | 76 | 60 | 4.0 | 6.0 | 0.00 | 0.00 | 0.00 | 71 | 1014.3 |
| 20260831073540 | 76 | 51 | 3.0 | 6.0 | 0.00 | 0.00 | 0.00 | 72 | 1014.3 |
| 20260831073012 | 75 | 50 | 3.0 | 5.0 | 0.00 | 0.00 | 0.00 | 73 | 1014.3 |
| 20260831072515 | 75 | 49 | 2.0 | 9.0 | 0.00 | 0.00 | 0.00 | 74 | 1014.3 |
| 20260831072018 | 75 | 50 | 4.0 | 9.0 | 0.00 | 0.00 | 0.00 | 73 | 1014.3 |
| 20260831071522 | 74 | 52 | 4.0 | 5.0 | 0.00 | 0.00 | 0.00 | 73 | 1014.3 |
| 20260831071042 | 74 | 51 | 3.0 | 6.0 | 0.00 | 0.00 | 0.00 | 75 | 1014.3 |
| 20260831070544 | 73 | 51 | 3.0 | 6.0 | 0.00 | 0.00 | 0.00 | 75 | 1014.3 |
| 20260831070036 | 73 | 49 | 2.0 | 4.0 | 0.00 | 0.00 | 0.00 | 77 | 1014.3 |
| 20260831065519 | 72 | 49 | 2.0 | 5.0 | 0.00 | 0.00 | 0.00 | 79 | 1014.3 |
| 20260831065018 | 71 | 49 | 2.0 | 4.0 | 0.00 | 0.00 | 0.00 | 79 | 1014.3 |
| 20260831064521 | 70 | 49 | 2.0 | 4.0 | 0.00 | 0.00 | 0.00 | 81 | 1014.3 |
| 20260831064021 | 70 | 49 | 3.0 | 5.0 | 0.00 | 0.00 | 0.00 | 82 | 1014.3 |
| 20260831063527 | 69 | 49 | 2.0 | 5.0 | 0.00 | 0.00 | 0.00 | 83 | 1014.3 |
| 20260831063041 | 68 | 49 | 3.0 | 5.0 | 0.00 | 0.00 | 0.00 | 84 | 1014.3 |
| 20260831062522 | 68 | 49 | 2.0 | 5.0 | 0.00 | 0.00 | 0.00 | 85 | 1014.3 |
| 20260831062042 | 68 | 49 | 3.0 | 4.0 | 0.00 | 0.00 | 0.00 | 85 | 1014.3 |
| 20260831061527 | 67 | 49 | 2.0 | 4.0 | 0.00 | 0.00 | 0.00 | 86 | 1014.3 |
| 20260831061047 | 67 | 49 | 2.0 | 4.0 | 0.00 | 0.00 | 0.00 | 86 | 1014.2 |
| 20260831060516 | 67 | 49 | 2.0 | 4.0 | 0.00 | 0.00 | 0.00 | 87 | 1014.2 |
| 20260831060044 | 66 | 49 | 1.0 | 4.0 | 0.00 | 0.00 | 0.00 | 88 | 1014.0 |
| 20260831055525 | 66 | 49 | 2.0 | 4.0 | 0.00 | 0.00 | 0.00 | 90 | 1014.0 |
| 20260831055029 | 65 | 49 | 1.0 | 4.0 | 0.00 | 0.00 | 0.00 | 91 | 1014.1 |
| 20260831054532 | 65 | 49 | 2.0 | 4.0 | 0.00 | 0.00 | 0.00 | 93 | 1014.1 |
| 20260831054012 | 65 | 49 | 3.0 | 4.0 | 0.00 | 0.00 | 0.00 | 93 | 1014.2 |
| 20260831053516 | 65 | 49 | 1.0 | 3.0 | 0.00 | 0.00 | 0.00 | 93 | 1014.1 |
| 20260831053027 | 64 | 49 | 0.0 | 3.0 | 0.00 | 0.00 | 0.00 | 94 | 1014.2 |
| 20260831052530 | 64 | 49 | 0.0 | 3.0 | 0.00 | 0.00 | 0.00 | 94 | 1014.2 |
| 20260831052031 | 64 | 49 | 2.0 | 3.0 | 0.00 | 0.00 | 0.00 | 93 | 1014.2 |
| 20260831051513 | 64 | 49 | 1.0 | 3.0 | 0.00 | 0.00 | 0.00 | 93 | 1014.2 |
| 20260831051013 | 64 | 49 | 0.0 | 1.0 | 0.00 | 0.00 | 0.00 | 93 | 1014.2 |
| 20260831050517 | 64 | 49 | 0.0 | 1.0 | 0.00 | 0.00 | 0.00 | 93 | 1014.3 |
| 20260831050031 | 64 | 49 | 0.0 | 1.0 | 0.00 | 0.00 | 0.00 | 93 | 1014.2 |
| 20260831045515 | 64 | 49 | 0.0 | 1.0 | 0.00 | 0.00 | 0.00 | 93 | 1014.1 |
| 20260831045014 | 64 | 49 | 0.0 | 1.0 | 0.00 | 0.00 | 0.00 | 93 | 1014.1 |
| 20260831044522 | 64 | 49 | 0.0 | 1.0 | 0.00 | 0.00 | 0.00 | 93 | 1014.1 |
| 20260831044023 | 63 | 49 | 0.0 | 1.0 | 0.00 | 0.00 | 0.00 | 93 | 1014.1 |
| 20260831043528 | 63 | 49 | 0.0 | 0.0 | 0.00 | 0.00 | 0.00 | 92 | 1014.1 |
| 20260831043020 | 63 | 49 | 0.0 | 0.0 | 0.00 | 0.00 | 0.00 | 92 | 1014.1 |
| 20260831042523 | 64 | 49 | 0.0 | 0.0 | 0.00 | 0.00 | 0.00 | 92 | 1014.1 |
| 20260831042023 | 64 | 49 | 0.0 | 1.0 | 0.00 | 0.00 | 0.00 | 92 | 1014.1 |
| 20260831041546 | 64 | 49 | 0.0 | 0.0 | 0.00 | 0.00 | 0.00 | 92 | 1014.1 |
| 20260831041025 | 64 | 49 | 0.0 | 0.0 | 0.00 | 0.00 | 0.00 | 92 | 1014.1 |
| 20260831040550 | 64 | 49 | 0.0 | 0.0 | 0.00 | 0.00 | 0.00 | 92 | 1014.1 |
| 20260831040022 | 64 | 49 | 0.0 | 0.0 | 0.00 | 0.00 | 0.00 | 92 | 1014.1 |
| 20260831035525 | 64 | 49 | 0.0 | 1.0 | 0.00 | 0.00 | 0.00 | 92 | 1014.1 |
| 20260831035026 | 64 | 49 | 0.0 | 1.0 | 0.00 | 0.00 | 0.00 | 92 | 1014.1 |
| 20260831034530 | 64 | 49 | 0.0 | 0.0 | 0.00 | 0.00 | 0.00 | 92 | 1014.1 |
| 20260831034030 | 64 | 49 | 0.0 | 0.0 | 0.00 | 0.00 | 0.00 | 92 | 1014.1 |
| 20260831033514 | 64 | 49 | 0.0 | 0.0 | 0.00 | 0.00 | 0.00 | 92 | 1014.1 |
| 20260831033025 | 64 | 49 | 0.0 | 0.0 | 0.00 | 0.00 | 0.00 | 91 | 1014.1 |
| 20260831032513 | 64 | 49 | 0.0 | 0.0 | 0.00 | 0.00 | 0.00 | 91 | 1014.1 |
| 20260831032053 | 64 | 49 | 0.0 | 0.0 | 0.00 | 0.00 | 0.00 | 91 | 1014.1 |
| 20260831031515 | 64 | 49 | 0.0 | 0.0 | 0.00 | 0.00 | 0.00 | 91 | 1014.1 |
| 20260831031034 | 64 | 49 | 0.0 | 0.0 | 0.00 | 0.00 | 0.00 | 91 | 1014.2 |
| 20260831030518 | 64 | 49 | 0.0 | 0.0 | 0.00 | 0.00 | 0.00 | 91 | 1014.2 |
| 20260831030030 | 64 | 49 | 0.0 | 0.0 | 0.00 | 0.00 | 0.00 | 91 | 1014.2 |
| 20260831025514 | 64 | 49 | 0.0 | 1.0 | 0.00 | 0.00 | 0.00 | 90 | 1014.2 |
| 20260831025015 | 64 | 49 | 0.0 | 1.0 | 0.00 | 0.00 | 0.00 | 90 | 1014.2 |
| 20260831024519 | 64 | 49 | 0.0 | 0.0 | 0.00 | 0.00 | 0.00 | 90 | 1014.2 |
| 20260831024040 | 64 | 49 | 0.0 | 0.0 | 0.00 | 0.00 | 0.00 | 90 | 1014.2 |
| 20260831023525 | 64 | 49 | 0.0 | 1.0 | 0.00 | 0.00 | 0.00 | 90 | 1014.2 |
| 20260831023017 | 64 | 49 | 0.0 | 1.0 | 0.00 | 0.00 | 0.00 | 90 | 1014.2 |
| 20260831022520 | 64 | 49 | 0.0 | 1.0 | 0.00 | 0.00 | 0.00 | 90 | 1014.2 |
| 20260831022021 | 64 | 49 | 0.0 | 0.0 | 0.00 | 0.00 | 0.00 | 90 | 1014.2 |
| 20260831021544 | 64 | 49 | 0.0 | 0.0 | 0.00 | 0.00 | 0.00 | 90 | 1014.2 |
| 20260831021025 | 64 | 49 | 0.0 | 0.0 | 0.00 | 0.00 | 0.00 | 90 | 1014.2 |
| 20260831020528 | 64 | 49 | 0.0 | 0.0 | 0.00 | 0.00 | 0.00 | 89 | 1014.2 |
| 20260831020018 | 65 | 49 | 0.0 | 0.0 | 0.00 | 0.00 | 0.00 | 89 | 1014.3 |
| 20260831015525 | 65 | 49 | 0.0 | 0.0 | 0.00 | 0.00 | 0.00 | 89 | 1014.2 |
| 20260831015024 | 65 | 49 | 0.0 | 1.0 | 0.00 | 0.00 | 0.00 | 89 | 1014.2 |
| 20260831014549 | 65 | 49 | 0.0 | 1.0 | 0.00 | 0.00 | 0.00 | 89 | 1014.2 |
| 20260831014030 | 65 | 49 | 0.0 | 1.0 | 0.00 | 0.00 | 0.00 | 89 | 1014.2 |
| 20260831013513 | 65 | 49 | 0.0 | 0.0 | 0.00 | 0.00 | 0.00 | 89 | 1014.3 |
| 20260831013025 | 65 | 49 | 0.0 | 0.0 | 0.00 | 0.00 | 0.00 | 89 | 1014.3 |
| 20260831012529 | 65 | 49 | 0.0 | 0.0 | 0.00 | 0.00 | 0.00 | 89 | 1014.3 |
| 20260831012028 | 65 | 49 | 0.0 | 1.0 | 0.00 | 0.00 | 0.00 | 89 | 1014.3 |
| 20260831011534 | 65 | 49 | 0.0 | 1.0 | 0.00 | 0.00 | 0.00 | 89 | 1014.3 |
| 20260831011014 | 65 | 49 | 0.0 | 1.0 | 0.00 | 0.00 | 0.00 | 89 | 1014.3 |
| 20260831010518 | 65 | 49 | 0.0 | 1.0 | 0.00 | 0.00 | 0.00 | 89 | 1014.3 |
| 20260831010031 | 65 | 49 | 0.0 | 1.0 | 0.00 | 0.00 | 0.00 | 89 | 1014.4 |
| 20260831005515 | 65 | 49 | 0.0 | 1.0 | 0.00 | 0.00 | 0.00 | 89 | 1014.4 |
| 20260831005016 | 65 | 49 | 0.0 | 0.0 | 0.00 | 0.00 | 0.00 | 89 | 1014.4 |
| 20260831004520 | 65 | 49 | 0.0 | 0.0 | 0.00 | 0.00 | 0.00 | 89 | 1014.4 |
| 20260831004018 | 65 | 49 | 0.0 | 0.0 | 0.00 | 0.00 | 0.00 | 89 | 1014.4 |
| 20260831003524 | 65 | 49 | 0.0 | 0.0 | 0.00 | 0.00 | 0.00 | 89 | 1014.4 |
| 20260831003015 | 65 | 49 | 0.0 | 0.0 | 0.00 | 0.00 | 0.00 | 89 | 1014.4 |
| 20260831002539 | 65 | 49 | 0.0 | 0.0 | 0.00 | 0.00 | 0.00 | 88 | 1014.4 |
| 20260831002019 | 65 | 49 | 0.0 | 0.0 | 0.00 | 0.00 | 0.00 | 88 | 1014.5 |
| 20260831001522 | 65 | 49 | 0.0 | 0.0 | 0.00 | 0.00 | 0.00 | 88 | 1014.5 |
| 20260831001023 | 66 | 49 | 0.0 | 0.0 | 0.00 | 0.00 | 0.00 | 88 | 1014.5 |
| 20260831000546 | 66 | 49 | 0.0 | 1.0 | 0.00 | 0.00 | 0.00 | 88 | 1014.6 |
| 20260831000037 | 66 | 49 | 0.0 | 1.0 | 0.00 | 0.00 | 0.00 | 88 | 1014.6 |
| 20260830235520 | 66 | 49 | 0.0 | 1.0 | 0.00 | 0.00 | 0.00 | 88 | 1014.5 |
| 20260830235019 | 66 | 49 | 0.0 | 1.0 | 0.00 | 0.00 | 0.00 | 88 | 1014.6 |
| 20260830234525 | 66 | 49 | 0.0 | 1.0 | 0.00 | 0.00 | 0.00 | 88 | 1014.6 |
| 20260830234026 | 66 | 49 | 0.0 | 1.0 | 0.00 | 0.00 | 0.00 | 88 | 1014.6 |
| 20260830233530 | 66 | 49 | 0.0 | 2.0 | 0.00 | 0.00 | 0.00 | 88 | 1014.5 |
| 20260830233022 | 66 | 49 | 0.0 | 2.0 | 0.00 | 0.00 | 0.00 | 88 | 1014.5 |
| 20260830232527 | 66 | 49 | 0.0 | 1.0 | 0.00 | 0.00 | 0.00 | 88 | 1014.5 |
| 20260830232048 | 66 | 49 | 0.0 | 0.0 | 0.00 | 0.00 | 0.00 | 88 | 1014.6 |
| 20260830231514 | 66 | 49 | 0.0 | 1.0 | 0.00 | 0.00 | 0.00 | 88 | 1014.6 |
| 20260830231035 | 66 | 49 | 0.0 | 1.0 | 0.00 | 0.00 | 0.00 | 87 | 1014.6 |
| 20260830230517 | 66 | 49 | 0.0 | 0.0 | 0.00 | 0.00 | 0.00 | 87 | 1014.6 |
| 20260830230030 | 66 | 49 | 0.0 | 0.0 | 0.00 | 0.00 | 0.00 | 87 | 1014.6 |
| 20260830225515 | 66 | 49 | 0.0 | 0.0 | 0.00 | 0.00 | 0.00 | 87 | 1014.6 |
| 20260830225016 | 66 | 49 | 0.0 | 0.0 | 0.00 | 0.00 | 0.00 | 87 | 1014.6 |
| 20260830224521 | 66 | 49 | 0.0 | 0.0 | 0.00 | 0.00 | 0.00 | 87 | 1014.7 |
| 20260830224022 | 67 | 49 | 0.0 | 1.0 | 0.00 | 0.00 | 0.00 | 87 | 1014.6 |
| 20260830223545 | 67 | 49 | 0.0 | 1.0 | 0.00 | 0.00 | 0.00 | 87 | 1014.6 |
| 20260830223014 | 67 | 49 | 0.0 | 1.0 | 0.00 | 0.00 | 0.00 | 86 | 1014.6 |
| 20260830222518 | 67 | 49 | 0.0 | 1.0 | 0.00 | 0.00 | 0.00 | 86 | 1014.7 |
| 20260830222038 | 67 | 49 | 0.0 | 1.0 | 0.00 | 0.00 | 0.00 | 86 | 1014.6 |
| 20260830221520 | 67 | 49 | 0.0 | 0.0 | 0.00 | 0.00 | 0.00 | 86 | 1014.6 |
| 20260830221021 | 67 | 49 | 0.0 | 1.0 | 0.00 | 0.00 | 0.00 | 86 | 1014.6 |
| 20260830220526 | 67 | 49 | 0.0 | 1.0 | 0.00 | 0.00 | 0.00 | 86 | 1014.6 |
| 20260830220020 | 67 | 49 | 0.0 | 1.0 | 0.00 | 0.00 | 0.00 | 86 | 1014.6 |
| 20260830215545 | 67 | 49 | 0.0 | 1.0 | 0.00 | 0.00 | 0.00 | 86 | 1014.6 |
| 20260830215030 | 67 | 49 | 0.0 | 1.0 | 0.00 | 0.00 | 0.00 | 85 | 1014.5 |
| 20260830214513 | 67 | 49 | 0.0 | 1.0 | 0.00 | 0.00 | 0.00 | 85 | 1014.6 |
| 20260830214032 | 68 | 49 | 0.0 | 1.0 | 0.00 | 0.00 | 0.00 | 85 | 1014.5 |
| 20260830213515 | 68 | 49 | 0.0 | 0.0 | 0.00 | 0.00 | 0.00 | 85 | 1014.6 |
| 20260830213027 | 68 | 49 | 0.0 | 0.0 | 0.00 | 0.00 | 0.00 | 85 | 1014.6 |
| 20260830212532 | 68 | 49 | 0.0 | 0.0 | 0.00 | 0.00 | 0.00 | 84 | 1014.5 |
| 20260830212031 | 68 | 49 | 0.0 | 1.0 | 0.00 | 0.00 | 0.00 | 84 | 1014.5 |
| 20260830211514 | 68 | 49 | 0.0 | 1.0 | 0.00 | 0.00 | 0.00 | 84 | 1014.4 |
| 20260830211033 | 68 | 49 | 0.0 | 1.0 | 0.00 | 0.00 | 0.00 | 84 | 1014.3 |
| 20260830210516 | 68 | 49 | 0.0 | 0.0 | 0.00 | 0.00 | 0.00 | 84 | 1014.4 |
| 20260830210030 | 68 | 49 | 0.0 | 0.0 | 0.00 | 0.00 | 0.00 | 84 | 1014.3 |
| 20260830205533 | 68 | 49 | 0.0 | 0.0 | 0.00 | 0.00 | 0.00 | 83 | 1014.3 |
| 20260830205052 | 68 | 49 | 0.0 | 0.0 | 0.00 | 0.00 | 0.00 | 84 | 1014.2 |
| 20260830204517 | 68 | 49 | 0.0 | 0.0 | 0.00 | 0.00 | 0.00 | 83 | 1014.3 |
| 20260830204018 | 68 | 49 | 0.0 | 1.0 | 0.00 | 0.00 | 0.00 | 84 | 1014.2 |
| 20260830203521 | 69 | 49 | 0.0 | 1.0 | 0.00 | 0.00 | 0.00 | 84 | 1014.3 |
| 20260830203033 | 69 | 49 | 0.0 | 2.0 | 0.00 | 0.00 | 0.00 | 84 | 1014.3 |
| 20260830202520 | 69 | 49 | 1.0 | 2.0 | 0.00 | 0.00 | 0.00 | 84 | 1014.3 |
| 20260830202022 | 69 | 49 | 0.0 | 0.0 | 0.00 | 0.00 | 0.00 | 84 | 1014.3 |
| 20260830201546 | 69 | 49 | 0.0 | 1.0 | 0.00 | 0.00 | 0.00 | 84 | 1014.3 |
| 20260830201023 | 69 | 49 | 0.0 | 1.0 | 0.00 | 0.00 | 0.00 | 84 | 1014.2 |
| 20260830200547 | 69 | 49 | 0.0 | 0.0 | 0.00 | 0.00 | 0.00 | 84 | 1014.3 |
| 20260830200018 | 69 | 49 | 0.0 | 0.0 | 0.00 | 0.00 | 0.00 | 83 | 1014.2 |
| 20260830195542 | 69 | 49 | 0.0 | 0.0 | 0.00 | 0.00 | 0.00 | 83 | 1014.2 |
| 20260830195021 | 69 | 49 | 0.0 | 1.0 | 0.00 | 0.00 | 0.00 | 83 | 1014.2 |
| 20260830194545 | 69 | 49 | 0.0 | 1.0 | 0.00 | 0.00 | 0.00 | 83 | 1014.2 |
| 20260830194023 | 70 | 49 | 0.0 | 0.0 | 0.00 | 0.00 | 0.00 | 83 | 1014.3 |
| 20260830193525 | 70 | 49 | 0.0 | 0.0 | 0.00 | 0.00 | 0.00 | 83 | 1014.2 |
| 20260830193037 | 70 | 49 | 0.0 | 0.0 | 0.00 | 0.00 | 0.00 | 83 | 1014.2 |
| 20260830192519 | 70 | 49 | 0.0 | 0.0 | 0.00 | 0.00 | 0.00 | 83 | 1014.1 |
| 20260830192021 | 70 | 49 | 0.0 | 0.0 | 0.00 | 0.00 | 0.00 | 82 | 1014.0 |
| 20260830191524 | 70 | 49 | 0.0 | 0.0 | 0.00 | 0.00 | 0.00 | 82 | 1014.0 |
| 20260830191043 | 70 | 49 | 0.0 | 0.0 | 0.00 | 0.00 | 0.00 | 82 | 1013.9 |
| 20260830190526 | 71 | 49 | 0.0 | 0.0 | 0.00 | 0.00 | 0.00 | 81 | 1013.9 |
| 20260830190040 | 71 | 49 | 0.0 | 0.0 | 0.00 | 0.00 | 0.00 | 81 | 1013.9 |
| 20260830185542 | 71 | 49 | 0.0 | 0.0 | 0.00 | 0.00 | 0.00 | 81 | 1013.8 |
| 20260830185021 | 71 | 49 | 0.0 | 0.0 | 0.00 | 0.00 | 0.00 | 81 | 1013.7 |
| 20260830184526 | 71 | 49 | 0.0 | 0.0 | 0.00 | 0.00 | 0.00 | 81 | 1013.6 |
| 20260830184048 | 72 | 49 | 0.0 | 0.0 | 0.00 | 0.00 | 0.00 | 80 | 1013.5 |
| 20260830183529 | 72 | 49 | 0.0 | 0.0 | 0.00 | 0.00 | 0.00 | 79 | 1013.4 |
| 20260830183021 | 72 | 49 | 0.0 | 1.0 | 0.00 | 0.00 | 0.00 | 80 | 1013.3 |
| 20260830182529 | 72 | 49 | 0.0 | 1.0 | 0.00 | 0.00 | 0.00 | 78 | 1013.3 |
| 20260830182027 | 72 | 49 | 0.0 | 0.0 | 0.00 | 0.00 | 0.00 | 78 | 1013.2 |
| 20260830181530 | 73 | 49 | 0.0 | 0.0 | 0.00 | 0.00 | 0.00 | 78 | 1013.1 |
| 20260830181029 | 73 | 49 | 0.0 | 0.0 | 0.00 | 0.00 | 0.00 | 78 | 1013.0 |
| 20260830180513 | 73 | 49 | 0.0 | 0.0 | 0.00 | 0.00 | 0.00 | 77 | 1013.0 |
| 20260830180025 | 74 | 49 | 0.0 | 0.0 | 0.00 | 0.00 | 0.00 | 77 | 1012.9 |
| 20260830175529 | 74 | 49 | 0.0 | 0.0 | 0.00 | 0.00 | 0.00 | 77 | 1012.9 |
| 20260830175028 | 74 | 49 | 0.0 | 0.0 | 0.00 | 0.00 | 0.00 | 77 | 1012.8 |
| 20260830174530 | 74 | 49 | 0.0 | 0.0 | 0.00 | 0.00 | 0.00 | 76 | 1012.8 |
| 20260830174011 | 75 | 49 | 0.0 | 0.0 | 0.00 | 0.00 | 0.00 | 76 | 1012.7 |
| 20260830173513 | 75 | 49 | 0.0 | 0.0 | 0.00 | 0.00 | 0.00 | 76 | 1012.6 |
| 20260830173024 | 75 | 49 | 0.0 | 0.0 | 0.00 | 0.00 | 0.00 | 74 | 1012.6 |
| 20260830172527 | 76 | 49 | 0.0 | 0.0 | 0.00 | 0.00 | 0.00 | 74 | 1012.6 |
| 20260830172012 | 76 | 49 | 0.0 | 0.0 | 0.00 | 0.00 | 0.00 | 74 | 1012.5 |
| 20260830171515 | 76 | 49 | 0.0 | 0.0 | 0.00 | 0.00 | 0.00 | 74 | 1012.5 |
| 20260830171016 | 76 | 49 | 0.0 | 0.0 | 0.00 | 0.00 | 0.00 | 74 | 1012.5 |
| 20260830170520 | 77 | 49 | 0.0 | 1.0 | 0.00 | 0.00 | 0.00 | 73 | 1012.5 |
| 20260830170012 | 77 | 49 | 0.0 | 1.0 | 0.00 | 0.00 | 0.00 | 74 | 1012.5 |
| 20260830165516 | 77 | 49 | 0.0 | 0.0 | 0.00 | 0.00 | 0.00 | 73 | 1012.5 |
| 20260830165016 | 77 | 49 | 0.0 | 0.0 | 0.00 | 0.00 | 0.00 | 72 | 1012.5 |
| 20260830164520 | 78 | 49 | 0.0 | 0.0 | 0.00 | 0.00 | 0.00 | 72 | 1012.5 |
| 20260830164022 | 78 | 49 | 0.0 | 0.0 | 0.00 | 0.00 | 0.00 | 72 | 1012.5 |
| 20260830163524 | 78 | 49 | 0.0 | 1.0 | 0.00 | 0.00 | 0.00 | 70 | 1012.5 |
| 20260830163016 | 79 | 49 | 0.0 | 0.0 | 0.00 | 0.00 | 0.00 | 69 | 1012.5 |
| 20260830162520 | 79 | 49 | 0.0 | 1.0 | 0.00 | 0.00 | 0.00 | 70 | 1012.4 |
| 20260830162040 | 79 | 49 | 0.0 | 1.0 | 0.00 | 0.00 | 0.00 | 68 | 1012.5 |
| 20260830161543 | 79 | 49 | 0.0 | 2.0 | 0.00 | 0.00 | 0.00 | 67 | 1012.5 |
| 20260830161021 | 80 | 49 | 1.0 | 2.0 | 0.00 | 0.00 | 0.00 | 67 | 1012.5 |
| 20260830160523 | 80 | 49 | 1.0 | 1.0 | 0.00 | 0.00 | 0.00 | 65 | 1012.4 |
| 20260830160032 | 81 | 49 | 0.0 | 1.0 | 0.00 | 0.00 | 0.00 | 65 | 1012.5 |
| 20260830155513 | 82 | 49 | 0.0 | 1.0 | 0.00 | 0.00 | 0.00 | 65 | 1012.4 |
| 20260830155017 | 83 | 49 | 1.0 | 1.0 | 0.00 | 0.00 | 0.00 | 64 | 1012.3 |
| 20260830154522 | 84 | 49 | 0.0 | 1.0 | 0.00 | 0.00 | 0.00 | 63 | 1012.4 |
| 20260830154022 | 85 | 49 | 0.0 | 1.0 | 0.00 | 0.00 | 0.00 | 62 | 1012.4 |
| 20260830153525 | 87 | 49 | 0.0 | 1.0 | 0.00 | 0.00 | 0.00 | 60 | 1012.4 |
| 20260830153040 | 87 | 49 | 0.0 | 1.0 | 0.00 | 0.00 | 0.00 | 59 | 1012.4 |
| 20260830152524 | 88 | 49 | 0.0 | 1.0 | 0.00 | 0.00 | 0.00 | 54 | 1012.5 |
| 20260830152022 | 88 | 49 | 1.0 | 1.0 | 0.00 | 0.00 | 0.00 | 53 | 1012.4 |
| 20260830151525 | 88 | 49 | 0.0 | 1.0 | 0.00 | 0.00 | 0.00 | 55 | 1012.5 |
| 20260830151027 | 88 | 49 | 0.0 | 2.0 | 0.00 | 0.00 | 0.00 | 56 | 1012.5 |
| 20260830150530 | 88 | 49 | 1.0 | 2.0 | 0.00 | 0.00 | 0.00 | 55 | 1012.5 |
| 20260830150044 | 89 | 49 | 1.0 | 2.0 | 0.00 | 0.00 | 0.00 | 52 | 1012.5 |
| 20260830145528 | 89 | 49 | 0.0 | 1.0 | 0.00 | 0.00 | 0.00 | 50 | 1012.5 |
| 20260830145028 | 89 | 49 | 1.0 | 2.0 | 0.00 | 0.00 | 0.00 | 48 | 1012.6 |
| 20260830144531 | 89 | 49 | 1.0 | 2.0 | 0.00 | 0.00 | 0.00 | 49 | 1012.6 |
| 20260830144016 | 89 | 49 | 1.0 | 2.0 | 0.00 | 0.00 | 0.00 | 45 | 1012.6 |
| 20260830143521 | 90 | 49 | 1.0 | 1.0 | 0.00 | 0.00 | 0.00 | 44 | 1012.6 |
| 20260830143012 | 90 | 49 | 0.0 | 2.0 | 0.00 | 0.00 | 0.00 | 44 | 1012.7 |
| 20260830142537 | 90 | 49 | 1.0 | 3.0 | 0.00 | 0.00 | 0.00 | 47 | 1012.7 |
| 20260830142016 | 91 | 49 | 2.0 | 3.0 | 0.00 | 0.00 | 0.00 | 45 | 1012.7 |
| 20260830141539 | 92 | 49 | 1.0 | 2.0 | 0.00 | 0.00 | 0.00 | 44 | 1012.7 |
| 20260830141019 | 92 | 49 | 1.0 | 3.0 | 0.00 | 0.00 | 0.00 | 37 | 1012.8 |
| 20260830140523 | 92 | 49 | 0.0 | 4.0 | 0.00 | 0.00 | 0.00 | 41 | 1012.9 |
| 20260830140037 | 92 | 49 | 2.0 | 4.0 | 0.00 | 0.00 | 0.00 | 37 | 1012.9 |
| 20260830135519 | 92 | 49 | 1.0 | 5.0 | 0.00 | 0.00 | 0.00 | 41 | 1012.9 |
| 20260830135040 | 92 | 50 | 3.0 | 5.0 | 0.00 | 0.00 | 0.00 | 38 | 1013.0 |
| 20260830134524 | 92 | 61 | 3.0 | 5.0 | 0.00 | 0.00 | 0.00 | 39 | 1013.0 |
| 20260830134026 | 92 | 51 | 2.0 | 6.0 | 0.00 | 0.00 | 0.00 | 37 | 1013.1 |
| 20260830133550 | 92 | 46 | 4.0 | 6.0 | 0.00 | 0.00 | 0.00 | 39 | 1013.1 |
| 20260830133021 | 92 | 75 | 1.0 | 3.0 | 0.00 | 0.00 | 0.00 | 38 | 1013.1 |
| 20260830132524 | 92 | 53 | 1.0 | 3.0 | 0.00 | 0.00 | 0.00 | 46 | 1013.1 |
| 20260830132045 | 92 | 53 | 2.0 | 5.0 | 0.00 | 0.00 | 0.00 | 40 | 1013.1 |
| 20260830131530 | 92 | 51 | 2.0 | 6.0 | 0.00 | 0.00 | 0.00 | 39 | 1013.2 |
| 20260830131050 | 92 | 47 | 3.0 | 6.0 | 0.00 | 0.00 | 0.00 | 41 | 1013.2 |
| 20260830130516 | 92 | 59 | 2.0 | 5.0 | 0.00 | 0.00 | 0.00 | 42 | 1013.2 |
| 20260830130028 | 92 | 74 | 2.0 | 4.0 | 0.00 | 0.00 | 0.00 | 38 | 1013.3 |
| 20260830125514 | 92 | 90 | 3.0 | 6.0 | 0.00 | 0.00 | 0.00 | 38 | 1013.3 |
| 20260830125015 | 91 | 206 | 2.0 | 8.0 | 0.00 | 0.00 | 0.00 | 40 | 1013.4 |
| 20260830124518 | 91 | 188 | 3.0 | 8.0 | 0.00 | 0.00 | 0.00 | 39 | 1013.4 |
| 20260830124038 | 92 | 86 | 2.0 | 4.0 | 0.00 | 0.00 | 0.00 | 37 | 1013.4 |
| 20260830123520 | 92 | 57 | 1.0 | 4.0 | 0.00 | 0.00 | 0.00 | 40 | 1013.4 |
| 20260830123013 | 92 | 57 | 2.0 | 4.0 | 0.00 | 0.00 | 0.00 | 39 | 1013.4 |
| 20260830122517 | 91 | 58 | 2.0 | 4.0 | 0.00 | 0.00 | 0.00 | 38 | 1013.4 |
| 20260830122019 | 91 | 57 | 3.0 | 5.0 | 0.00 | 0.00 | 0.00 | 41 | 1013.5 |
| 20260830121522 | 91 | 59 | 3.0 | 5.0 | 0.00 | 0.00 | 0.00 | 42 | 1013.5 |
| 20260830121024 | 91 | 55 | 1.0 | 3.0 | 0.00 | 0.00 | 0.00 | 40 | 1013.6 |
| 20260830120529 | 91 | 51 | 1.0 | 5.0 | 0.00 | 0.00 | 0.00 | 43 | 1013.6 |
| 20260830120021 | 91 | 51 | 3.0 | 5.0 | 0.00 | 0.00 | 0.00 | 41 | 1013.6 |
| 20260830115545 | 91 | 61 | 1.0 | 4.0 | 0.00 | 0.00 | 0.00 | 40 | 1013.6 |
| 20260830115027 | 91 | 73 | 2.0 | 4.0 | 0.00 | 0.00 | 0.00 | 41 | 1013.6 |
| 20260830114531 | 91 | 85 | 1.0 | 3.0 | 0.00 | 0.00 | 0.00 | 41 | 1013.6 |
| 20260830114030 | 90 | 85 | 2.0 | 3.0 | 0.00 | 0.00 | 0.00 | 43 | 1013.6 |
| 20260830113512 | 90 | 102 | 2.0 | 4.0 | 0.00 | 0.00 | 0.00 | 40 | 1013.6 |
| 20260830113024 | 90 | 78 | 1.0 | 4.0 | 0.00 | 0.00 | 0.00 | 39 | 1013.7 |
| 20260830112527 | 90 | 73 | 2.0 | 4.0 | 0.00 | 0.00 | 0.00 | 44 | 1013.7 |
| 20260830112028 | 90 | 72 | 1.0 | 5.0 | 0.00 | 0.00 | 0.00 | 46 | 1013.7 |
| 20260830111533 | 89 | 64 | 4.0 | 5.0 | 0.00 | 0.00 | 0.00 | 41 | 1013.8 |
| 20260830111011 | 89 | 66 | 1.0 | 9.0 | 0.00 | 0.00 | 0.00 | 41 | 1013.8 |
| 20260830110515 | 89 | 63 | 3.0 | 9.0 | 0.00 | 0.00 | 0.00 | 42 | 1013.8 |
| 20260830110029 | 89 | 45 | 5.0 | 9.0 | 0.00 | 0.00 | 0.00 | 43 | 1013.8 |
| 20260830105513 | 89 | 63 | 4.0 | 9.0 | 0.00 | 0.00 | 0.00 | 43 | 1013.9 |
| 20260830105012 | 89 | 61 | 2.0 | 10.0 | 0.00 | 0.00 | 0.00 | 44 | 1013.9 |
| 20260830104515 | 88 | 46 | 2.0 | 10.0 | 0.00 | 0.00 | 0.00 | 45 | 1014.0 |
| 20260830104016 | 88 | 47 | 4.0 | 10.0 | 0.00 | 0.00 | 0.00 | 46 | 1014.1 |
| 20260830103525 | 88 | 71 | 4.0 | 9.0 | 0.00 | 0.00 | 0.00 | 46 | 1014.1 |
| 20260830103017 | 88 | 60 | 3.0 | 9.0 | 0.00 | 0.00 | 0.00 | 44 | 1014.2 |
| 20260830102542 | 88 | 57 | 4.0 | 9.0 | 0.00 | 0.00 | 0.00 | 46 | 1014.2 |
| 20260830102022 | 88 | 44 | 4.0 | 9.0 | 0.00 | 0.00 | 0.00 | 47 | 1014.3 |
| 20260830101525 | 87 | 59 | 5.0 | 9.0 | 0.00 | 0.00 | 0.00 | 47 | 1014.3 |
| 20260830101025 | 87 | 68 | 4.0 | 9.0 | 0.00 | 0.00 | 0.00 | 47 | 1014.3 |
| 20260830100548 | 87 | 61 | 4.0 | 9.0 | 0.00 | 0.00 | 0.00 | 49 | 1014.4 |
| 20260830100018 | 87 | 55 | 4.0 | 9.0 | 0.00 | 0.00 | 0.00 | 48 | 1014.4 |
| 20260830095523 | 87 | 59 | 5.0 | 9.0 | 0.00 | 0.00 | 0.00 | 50 | 1014.4 |
| 20260830095026 | 87 | 55 | 4.0 | 6.0 | 0.00 | 0.00 | 0.00 | 50 | 1014.5 |